When you browse on this site, cookies collect data to enhance your experience and personalize the content and advertising you see.
Visit our Privacy Policy to learn more. By continuing to use the site, you agree to this use of cookies and data.
  • In Schweiz
  • Länderverzeichnis
  • Für 7 Tage
  • Wassertemperatur
  • Satellitenkarten
  • Wetterkarte
  • Widgets
  • user-avatar
    Anmelden

    Stündliche Wetter La Massana

    Heute, 23 März, Samstag

    Zeit Temperatur Niederschläge Wind Luftdruck Luftfeuchtigkeit
    00:00 +2°C° 0 mm 1 m/S 614 mmHg 76%
    01:00 +1°C° 0 mm 1 m/S 613 mmHg 76%
    02:00 +1°C° 0 mm 1 m/S 613 mmHg 75%
    03:00 +1°C° 0 mm 1 m/S 613 mmHg 74%
    04:00 +1°C° 0 mm 1 m/S 613 mmHg 73%
    05:00 +1°C° 0 mm 1 m/S 613 mmHg 72%
    06:00 +1°C° 0 mm 1 m/S 613 mmHg 70%
    07:00 +4°C° 0 mm 1 m/S 614 mmHg 62%
    08:00 +6°C° 0 mm 0 m/S 615 mmHg 54%
    09:00 +8°C° 0 mm 0 m/S 617 mmHg 47%
    10:00 +10°C° 0 mm 0 m/S 617 mmHg 44%
    11:00 +12°C° 0 mm 1 m/S 617 mmHg 41%
    12:00 +13°C° 0 mm 1 m/S 618 mmHg 38%
    13:00 +12°C° 0 mm 1 m/S 617 mmHg 39%
    14:00 +12°C° 0 mm 1 m/S 617 mmHg 40%
    15:00 +12°C° 0 mm 1 m/S 616 mmHg 41%
    16:00 +10°C° 0 mm 1 m/S 615 mmHg 49%
    17:00 +8°C° 0 mm 1 m/S 614 mmHg 57%
    18:00 +6°C° 0 mm 1 m/S 613 mmHg 65%
    19:00 +5°C° 0 mm 1 m/S 613 mmHg 68%
    20:00 +4°C° 0 mm 1 m/S 613 mmHg 71%
    21:00 +3°C° 0 mm 1 m/S 613 mmHg 75%
    22:00 +3°C° 0 mm 1 m/S 613 mmHg 74%
    23:00 +3°C° 0 mm 1 m/S 613 mmHg 73%

    Morgen, 24 März, Sonntag

    Zeit Temperatur Niederschläge Wind Luftdruck Luftfeuchtigkeit
    00:00 +3°C° 0 mm 1 m/S 613 mmHg 72%
    01:00 +3°C° 0 mm 1 m/S 613 mmHg 70%
    02:00 +3°C° 0 mm 1 m/S 612 mmHg 68%
    03:00 +3°C° 0 mm 1 m/S 612 mmHg 66%
    04:00 +3°C° 0 mm 1 m/S 612 mmHg 65%
    05:00 +3°C° 0 mm 1 m/S 612 mmHg 63%
    06:00 +3°C° 0 mm 1 m/S 612 mmHg 61%
    07:00 +4°C° 0 mm 0 m/S 614 mmHg 55%
    08:00 +6°C° 0 mm 0 m/S 615 mmHg 48%
    09:00 +9°C° 0 mm 0 m/S 616 mmHg 41%
    10:00 +10°C° 0 mm 0 m/S 616 mmHg 39%
    11:00 +12°C° 0 mm 1 m/S 616 mmHg 37%
    12:00 +13°C° 0 mm 1 m/S 617 mmHg 36%
    13:00 +12°C° 0 mm 1 m/S 616 mmHg 38%
    14:00 +12°C° 0 mm 1 m/S 615 mmHg 41%
    15:00 +11°C° 0 mm 1 m/S 615 mmHg 44%
    16:00 +10°C° 0.3 mm 1 m/S 614 mmHg 54%
    17:00 +8°C° 0.3 mm 1 m/S 613 mmHg 64%
    18:00 +6°C° 0.3 mm 1 m/S 613 mmHg 74%
    19:00 +5°C° 0.1 mm 1 m/S 612 mmHg 79%
    20:00 +4°C° 0.1 mm 1 m/S 612 mmHg 84%
    21:00 +3°C° 0.1 mm 1 m/S 612 mmHg 89%
    22:00 +3°C° 0 mm 1 m/S 612 mmHg 89%
    23:00 +3°C° 0 mm 1 m/S 612 mmHg 90%

    übermorgen, 25 März, Montag

    Zeit Temperatur Niederschläge Wind Luftdruck Luftfeuchtigkeit
    00:00 +2°C° 0 mm 1 m/S 611 mmHg 91%
    01:00 +2°C° 0 mm 1 m/S 611 mmHg 90%
    02:00 +1°C° 0 mm 1 m/S 611 mmHg 89%
    03:00 +1°C° 0 mm 1 m/S 611 mmHg 88%
    04:00 +1°C° 0 mm 1 m/S 610 mmHg 86%
    05:00 +1°C° 0 mm 1 m/S 610 mmHg 84%
    06:00 0°C° 0 mm 1 m/S 610 mmHg 82%
    07:00 +3°C° 0 mm 1 m/S 611 mmHg 73%
    08:00 +5°C° 0 mm 1 m/S 612 mmHg 64%
    09:00 +7°C° 0 mm 1 m/S 613 mmHg 55%
    10:00 +7°C° 0 mm 2 m/S 613 mmHg 54%
    11:00 +8°C° 0 mm 2 m/S 614 mmHg 52%
    12:00 +9°C° 0 mm 2 m/S 614 mmHg 51%
    13:00 +8°C° 0.1 mm 2 m/S 613 mmHg 56%
    14:00 +7°C° 0.1 mm 2 m/S 612 mmHg 62%
    15:00 +5°C° 0.1 mm 3 m/S 611 mmHg 68%
    16:00 +4°C° 0 mm 3 m/S 611 mmHg 72%
    17:00 +2°C° 0 mm 3 m/S 610 mmHg 77%
    18:00 +1°C° 0 mm 3 m/S 610 mmHg 81%
    19:00 +1°C° 0 mm 2 m/S 610 mmHg 80%
    20:00 -2°C° 0 mm 2 m/S 610 mmHg 79%
    21:00 -3°C° 0 mm 2 m/S 609 mmHg 78%
    22:00 -4°C° 0 mm 3 m/S 610 mmHg 81%
    23:00 -4°C° 0 mm 3 m/S 610 mmHg 84%

    26 März, Dienstag

    Zeit Temperatur Niederschläge Wind Luftdruck Luftfeuchtigkeit
    00:00 -4°C° 0 mm 3 m/S 610 mmHg 87%
    01:00 -4°C° 0 mm 3 m/S 610 mmHg 86%
    02:00 -4°C° 0 mm 3 m/S 610 mmHg 85%
    03:00 -4°C° 0 mm 3 m/S 610 mmHg 84%
    04:00 -5°C° 0 mm 3 m/S 610 mmHg 82%
    05:00 -6°C° 0 mm 3 m/S 610 mmHg 80%
    06:00 -6°C° 0 mm 3 m/S 609 mmHg 78%
    07:00 -4°C° 0 mm 3 m/S 611 mmHg 60%
    08:00 0°C° 0 mm 3 m/S 612 mmHg 43%
    09:00 +2°C° 0 mm 3 m/S 613 mmHg 25%
    10:00 +3°C° 0 mm 3 m/S 614 mmHg 23%
    11:00 +5°C° 0 mm 3 m/S 615 mmHg 21%
    12:00 +7°C° 0 mm 2 m/S 615 mmHg 19%
    13:00 +7°C° 0 mm 2 m/S 615 mmHg 21%
    14:00 +7°C° 0 mm 2 m/S 615 mmHg 23%
    15:00 +7°C° 0 mm 2 m/S 614 mmHg 25%
    16:00 +5°C° 0 mm 2 m/S 614 mmHg 34%
    17:00 +3°C° 0 mm 2 m/S 613 mmHg 42%
    18:00 +2°C° 0 mm 1 m/S 612 mmHg 51%
    19:00 +1°C° 0 mm 1 m/S 612 mmHg 50%
    20:00 0°C° 0 mm 1 m/S 612 mmHg 49%
    21:00 -1°C° 0 mm 1 m/S 612 mmHg 49%
    22:00 -1°C° 0 mm 1 m/S 612 mmHg 47%
    23:00 -1°C° 0 mm 1 m/S 612 mmHg 45%

    27 März, Mittwoch

    Zeit Temperatur Niederschläge Wind Luftdruck Luftfeuchtigkeit
    00:00 -1°C° 0 mm 1 m/S 612 mmHg 43%
    01:00 -1°C° 0 mm 1 m/S 612 mmHg 43%
    02:00 -1°C° 0 mm 1 m/S 612 mmHg 42%
    03:00 -1°C° 0 mm 1 m/S 612 mmHg 42%
    04:00 -1°C° 0 mm 1 m/S 612 mmHg 42%
    05:00 -1°C° 0 mm 1 m/S 612 mmHg 42%
    06:00 -2°C° 0 mm 1 m/S 612 mmHg 43%
    07:00 +1°C° 0 mm 1 m/S 614 mmHg 37%
    08:00 +4°C° 0 mm 1 m/S 615 mmHg 32%
    09:00 +7°C° 0 mm 1 m/S 616 mmHg 26%
    10:00 +8°C° 0 mm 1 m/S 617 mmHg 26%
    11:00 +10°C° 0 mm 1 m/S 617 mmHg 26%
    12:00 +11°C° 0 mm 1 m/S 618 mmHg 26%
    13:00 +11°C° 0 mm 1 m/S 617 mmHg 28%
    14:00 +9°C° 0 mm 2 m/S 617 mmHg 31%
    15:00 +9°C° 0 mm 2 m/S 616 mmHg 33%
    16:00 +8°C° 0 mm 1 m/S 615 mmHg 42%
    17:00 +6°C° 0 mm 1 m/S 614 mmHg 52%
    18:00 +3°C° 0 mm 1 m/S 613 mmHg 61%
    19:00 +2°C° 0 mm 1 m/S 613 mmHg 66%
    20:00 +1°C° 0 mm 1 m/S 613 mmHg 70%
    21:00 0°C° 0 mm 1 m/S 613 mmHg 74%
    22:00 0°C° 0 mm 1 m/S 613 mmHg 70%
    23:00 0°C° 0 mm 1 m/S 613 mmHg 65%

    28 März, Donnerstag

    Zeit Temperatur Niederschläge Wind Luftdruck Luftfeuchtigkeit
    00:00 0°C° 0 mm 1 m/S 613 mmHg 61%
    01:00 0°C° 0 mm 1 m/S 613 mmHg 58%
    02:00 0°C° 0 mm 1 m/S 613 mmHg 55%
    03:00 0°C° 0 mm 1 m/S 613 mmHg 52%
    04:00 0°C° 0 mm 1 m/S 613 mmHg 53%
    05:00 -1°C° 0 mm 1 m/S 613 mmHg 54%
    06:00 -1°C° 0 mm 1 m/S 613 mmHg 55%
    07:00 +2°C° 0 mm 1 m/S 614 mmHg 49%
    08:00 +4°C° 0 mm 1 m/S 615 mmHg 43%
    09:00 +7°C° 0 mm 1 m/S 617 mmHg 37%
    10:00 +8°C° 0 mm 1 m/S 617 mmHg 36%
    11:00 +9°C° 0 mm 1 m/S 617 mmHg 35%
    12:00 +10°C° 0 mm 1 m/S 618 mmHg 35%
    13:00 +9°C° 0.1 mm 1 m/S 617 mmHg 40%
    14:00 +8°C° 0.1 mm 1 m/S 616 mmHg 45%
    15:00 +7°C° 0.1 mm 1 m/S 616 mmHg 50%
    16:00 +6°C° 0.1 mm 1 m/S 615 mmHg 57%
    17:00 +5°C° 0.1 mm 1 m/S 615 mmHg 65%
    18:00 +4°C° 0.1 mm 1 m/S 615 mmHg 72%
    19:00 +3°C° 0.1 mm 1 m/S 615 mmHg 75%
    20:00 +2°C° 0.1 mm 1 m/S 615 mmHg 79%
    21:00 +2°C° 0.1 mm 1 m/S 615 mmHg 83%
    22:00 +1°C° 0 mm 1 m/S 615 mmHg 84%
    23:00 +1°C° 0 mm 1 m/S 615 mmHg 86%
    Mehr zeigen